Time,TemperatureF,DewpointF,PressureIn,WindDirection,WindDirectionDegrees,WindSpeedMPH,WindSpeedGustMPH,Humidity,HourlyPrecipIn,Conditions,Clouds,dailyrainin,SoftwareType,DateUTC
2013-02-23 00:04:00,26.8,17.3,30.17,West,277,2.0,3.0,67,0.00,,,0.00,Wunderground v.1.15,2013-02-23 07:04:00,
2013-02-23 00:09:00,26.6,17.1,30.17,West,275,2.0,4.0,67,0.00,,,0.00,Wunderground v.1.15,2013-02-23 07:09:00,
2013-02-23 00:15:00,26.4,16.9,30.17,West,276,1.0,2.0,67,0.00,,,0.00,Wunderground v.1.15,2013-02-23 07:15:00,
2013-02-23 00:21:00,26.1,17.0,30.17,West,277,1.0,2.0,68,0.00,,,0.00,Wunderground v.1.15,2013-02-23 07:21:00,
2013-02-23 00:26:00,25.8,16.7,30.17,West,277,2.0,2.0,68,0.00,,,0.00,Wunderground v.1.15,2013-02-23 07:26:00,
2013-02-23 00:31:00,25.5,16.7,30.18,West,276,2.0,2.0,69,0.00,,,0.00,Wunderground v.1.15,2013-02-23 07:31:00,
2013-02-23 00:36:00,25.2,16.5,30.18,NNW,339,2.0,4.0,69,0.00,,,0.00,Wunderground v.1.15,2013-02-23 07:36:00,
2013-02-23 00:42:00,25.0,15.9,30.18,NNW,340,0.0,2.0,68,0.00,,,0.00,Wunderground v.1.15,2013-02-23 07:42:00,
2013-02-23 00:48:00,24.9,15.8,30.18,NNW,339,1.0,2.0,68,0.00,,,0.00,Wunderground v.1.15,2013-02-23 07:48:00,
2013-02-23 00:54:00,24.9,15.8,30.18,NNW,339,0.0,2.0,68,0.00,,,0.00,Wunderground v.1.15,2013-02-23 07:54:00,
2013-02-23 00:59:00,24.7,15.6,30.18,NNW,340,2.0,3.0,68,0.00,,,0.00,Wunderground v.1.15,2013-02-23 07:59:00,
2013-02-23 01:05:00,24.7,15.0,30.18,NNW,340,1.0,3.0,68,0.00,,,0.00,weatherlink.com 1.10,2013-02-23 08:05:00,
2013-02-23 01:10:00,24.5,15.8,30.18,NNW,340,1.0,3.0,69,0.00,,,0.00,Wunderground v.1.15,2013-02-23 08:10:00,
2013-02-23 01:16:00,24.2,15.8,30.18,NNW,340,0.0,2.0,70,0.00,,,0.00,Wunderground v.1.15,2013-02-23 08:16:00,
2013-02-23 01:22:00,23.9,15.0,30.19,NNW,339,2.0,3.0,70,0.00,,,0.00,weatherlink.com 1.10,2013-02-23 08:22:00,
2013-02-23 01:27:00,23.7,15.3,30.19,NNW,339,0.0,2.0,70,0.00,,,0.00,Wunderground v.1.15,2013-02-23 08:27:00,
2013-02-23 01:33:00,23.6,15.6,30.18,NNW,339,0.0,2.0,71,0.00,,,0.00,Wunderground v.1.15,2013-02-23 08:33:00,
2013-02-23 01:39:00,23.3,15.3,30.19,NNW,339,1.0,2.0,71,0.00,,,0.00,Wunderground v.1.15,2013-02-23 08:39:00,
2013-02-23 01:44:00,23.0,15.0,30.19,NNW,339,0.0,1.0,71,0.00,,,0.00,Wunderground v.1.15,2013-02-23 08:44:00,
2013-02-23 01:50:00,22.8,15.4,30.19,NNW,340,1.0,1.0,73,0.00,,,0.00,Wunderground v.1.15,2013-02-23 08:50:00,
2013-02-23 01:56:00,22.8,15.4,30.19,NNW,340,0.0,1.0,73,0.00,,,0.00,Wunderground v.1.15,2013-02-23 08:56:00,
2013-02-23 02:01:00,22.7,15.3,30.19,NNW,339,1.0,1.0,73,0.00,,,0.00,Wunderground v.1.15,2013-02-23 09:01:00,
2013-02-23 02:06:00,22.6,15.2,30.19,NNW,340,1.0,2.0,73,0.00,,,0.00,Wunderground v.1.15,2013-02-23 09:06:00,
2013-02-23 02:11:00,22.5,15.1,30.19,NNW,340,1.0,1.0,73,0.00,,,0.00,Wunderground v.1.15,2013-02-23 09:11:00,
2013-02-23 02:16:00,22.3,15.0,30.18,NE,39,4.0,5.0,73,0.00,,,0.00,Wunderground v.1.15,2013-02-23 09:16:00,
2013-02-23 02:21:00,22.1,14.8,30.19,NE,46,1.0,4.0,73,0.00,,,0.00,Wunderground v.1.15,2013-02-23 09:21:00,
2013-02-23 02:26:00,22.0,15.0,30.19,East,90,0.0,4.0,74,0.00,,,0.00,Wunderground v.1.15,2013-02-23 09:26:00,
2013-02-23 02:31:00,22.1,14.8,30.19,East,91,2.0,2.0,73,0.00,,,0.00,Wunderground v.1.15,2013-02-23 09:31:00,
2013-02-23 02:36:00,22.2,14.5,30.18,East,90,2.0,2.0,72,0.00,,,0.00,Wunderground v.1.15,2013-02-23 09:36:00,
2013-02-23 02:41:00,22.4,14.4,30.18,ENE,58,4.0,4.0,71,0.00,,,0.00,Wunderground v.1.15,2013-02-23 09:41:00,
2013-02-23 02:46:00,22.7,14.4,30.18,ENE,57,3.0,5.0,70,0.00,,,0.00,Wunderground v.1.15,2013-02-23 09:46:00,
2013-02-23 02:51:00,22.9,14.2,30.18,ENE,57,1.0,3.0,69,0.00,,,0.00,Wunderground v.1.15,2013-02-23 09:51:00,
2013-02-23 02:56:00,22.9,14.2,30.18,ENE,77,1.0,3.0,69,0.00,,,0.00,Wunderground v.1.15,2013-02-23 09:56:00,
2013-02-23 03:01:00,22.9,14.2,30.18,ENE,78,0.0,1.0,69,0.00,,,0.00,Wunderground v.1.15,2013-02-23 10:01:00,
2013-02-23 03:06:00,22.8,14.1,30.18,ENE,63,4.0,4.0,69,0.00,,,0.00,Wunderground v.1.15,2013-02-23 10:06:00,
2013-02-23 03:11:00,22.7,14.1,30.18,ENE,63,1.0,2.0,69,0.00,,,0.00,Wunderground v.1.15,2013-02-23 10:11:00,
2013-02-23 03:17:00,22.6,14.0,30.17,ENE,63,2.0,5.0,69,0.00,,,0.00,Wunderground v.1.15,2013-02-23 10:17:00,
2013-02-23 03:22:00,22.7,14.1,30.17,ENE,64,2.0,3.0,69,0.00,,,0.00,Wunderground v.1.15,2013-02-23 10:22:00,
2013-02-23 03:27:00,22.8,14.1,30.17,ENE,63,0.0,3.0,69,0.00,,,0.00,Wunderground v.1.15,2013-02-23 10:27:00,
2013-02-23 03:32:00,22.7,14.4,30.17,ENE,62,0.0,1.0,70,0.00,,,0.00,Wunderground v.1.15,2013-02-23 10:32:00,
2013-02-23 03:37:00,22.5,13.9,30.17,ENE,63,1.0,2.0,69,0.00,,,0.00,Wunderground v.1.15,2013-02-23 10:37:00,
2013-02-23 03:42:00,22.6,14.3,30.17,ENE,58,4.0,4.0,70,0.00,,,0.00,Wunderground v.1.15,2013-02-23 10:42:00,
2013-02-23 03:47:00,22.6,14.3,30.16,North,10,3.0,7.0,70,0.00,,,0.00,Wunderground v.1.15,2013-02-23 10:47:00,
2013-02-23 03:52:00,22.4,13.8,30.15,NNE,32,4.0,6.0,69,0.00,,,0.00,Wunderground v.1.15,2013-02-23 10:52:00,
2013-02-23 03:57:00,22.3,13.7,30.16,NNE,31,0.0,6.0,69,0.00,,,0.00,Wunderground v.1.15,2013-02-23 10:57:00,
2013-02-23 04:02:00,22.5,14.2,30.17,NNE,32,3.0,4.0,70,0.00,,,0.00,Wunderground v.1.15,2013-02-23 11:02:00,
2013-02-23 04:07:00,22.5,13.9,30.17,NNE,31,1.0,4.0,69,0.00,,,0.00,Wunderground v.1.15,2013-02-23 11:07:00,
2013-02-23 04:12:00,22.3,13.7,30.16,NNE,32,3.0,3.0,69,0.00,,,0.00,Wunderground v.1.15,2013-02-23 11:12:00,
2013-02-23 04:17:00,22.1,13.5,30.17,NNE,30,2.0,4.0,69,0.00,,,0.00,Wunderground v.1.15,2013-02-23 11:17:00,
2013-02-23 04:22:00,21.7,13.4,30.17,NNE,32,3.0,3.0,70,0.00,,,0.00,Wunderground v.1.15,2013-02-23 11:22:00,
2013-02-23 04:27:00,21.5,13.5,30.18,NNE,32,1.0,3.0,71,0.00,,,0.00,Wunderground v.1.15,2013-02-23 11:27:00,
2013-02-23 04:32:00,21.3,13.4,30.18,NNE,32,2.0,3.0,71,0.00,,,0.00,Wunderground v.1.15,2013-02-23 11:32:00,
2013-02-23 04:37:00,21.1,12.8,30.18,NNE,32,2.0,3.0,70,0.00,,,0.00,Wunderground v.1.15,2013-02-23 11:37:00,
2013-02-23 04:42:00,20.8,12.9,30.18,NNE,32,0.0,2.0,71,0.00,,,0.00,Wunderground v.1.15,2013-02-23 11:42:00,
2013-02-23 04:47:00,20.4,12.8,30.19,NNE,31,0.0,2.0,72,0.00,,,0.00,Wunderground v.1.15,2013-02-23 11:47:00,
2013-02-23 04:52:00,20.2,13.2,30.19,NNE,32,2.0,4.0,74,0.00,,,0.00,Wunderground v.1.15,2013-02-23 11:52:00,
2013-02-23 04:57:00,20.2,13.2,30.19,SSE,163,1.0,4.0,74,0.00,,,0.00,Wunderground v.1.15,2013-02-23 11:57:00,
2013-02-23 05:03:00,20.0,13.0,30.19,SSE,163,0.0,3.0,74,0.00,,,0.00,Wunderground v.1.15,2013-02-23 12:03:00,
2013-02-23 05:08:00,19.9,12.9,30.19,SSE,163,1.0,3.0,74,0.00,,,0.00,Wunderground v.1.15,2013-02-23 12:08:00,
2013-02-23 05:13:00,19.6,13.0,30.19,WNW,299,2.0,4.0,75,0.00,,,0.00,Wunderground v.1.15,2013-02-23 12:13:00,
2013-02-23 05:18:00,19.6,13.3,30.18,WNW,299,0.0,4.0,76,0.00,,,0.00,Wunderground v.1.15,2013-02-23 12:18:00,
2013-02-23 05:23:00,19.7,13.4,30.19,WNW,298,2.0,3.0,76,0.00,,,0.00,Wunderground v.1.15,2013-02-23 12:23:00,
2013-02-23 05:28:00,19.7,13.1,30.19,WNW,299,2.0,3.0,75,0.00,,,0.00,Wunderground v.1.15,2013-02-23 12:28:00,
2013-02-23 05:33:00,19.6,13.0,30.19,WNW,298,0.0,2.0,75,0.00,,,0.00,Wunderground v.1.15,2013-02-23 12:33:00,
2013-02-23 05:38:00,19.7,12.8,30.19,WNW,299,2.0,4.0,74,0.00,,,0.00,Wunderground v.1.15,2013-02-23 12:38:00,
2013-02-23 05:43:00,19.5,12.6,30.19,WNW,299,0.0,2.0,74,0.00,,,0.00,Wunderground v.1.15,2013-02-23 12:43:00,
2013-02-23 05:48:00,19.3,12.7,30.20,WNW,298,3.0,3.0,75,0.00,,,0.00,Wunderground v.1.15,2013-02-23 12:48:00,
2013-02-23 05:53:00,19.3,12.7,30.20,WNW,299,1.0,5.0,75,0.00,,,0.00,Wunderground v.1.15,2013-02-23 12:53:00,
2013-02-23 05:58:00,19.1,12.5,30.20,WNW,298,0.0,5.0,75,0.00,,,0.00,Wunderground v.1.15,2013-02-23 12:58:00,
2013-02-23 06:03:00,19.0,12.4,30.20,WNW,299,3.0,3.0,75,0.00,,,0.00,Wunderground v.1.15,2013-02-23 13:03:00,
2013-02-23 06:08:00,19.0,12.4,30.20,WNW,298,2.0,3.0,75,0.00,,,0.00,Wunderground v.1.15,2013-02-23 13:08:00,
2013-02-23 06:13:00,18.9,12.0,30.21,WNW,298,2.0,2.0,74,0.00,,,0.00,Wunderground v.1.15,2013-02-23 13:13:00,
2013-02-23 06:18:00,19.0,12.1,30.21,WNW,299,4.0,4.0,74,0.00,,,0.00,Wunderground v.1.15,2013-02-23 13:18:00,
2013-02-23 06:23:00,19.1,11.9,30.21,WNW,299,3.0,4.0,73,0.00,,,0.00,Wunderground v.1.15,2013-02-23 13:23:00,
2013-02-23 06:28:00,19.1,11.6,30.21,WNW,299,1.0,4.0,72,0.00,,,0.00,Wunderground v.1.15,2013-02-23 13:28:00,
2013-02-23 06:33:00,19.2,11.6,30.21,WNW,299,2.0,3.0,72,0.00,,,0.00,Wunderground v.1.15,2013-02-23 13:33:00,
2013-02-23 06:38:00,19.1,11.6,30.22,WNW,299,1.0,3.0,72,0.00,,,0.00,Wunderground v.1.15,2013-02-23 13:38:00,
2013-02-23 06:43:00,19.0,11.8,30.23,WNW,298,2.0,3.0,73,0.00,,,0.00,Wunderground v.1.15,2013-02-23 13:43:00,
2013-02-23 06:48:00,19.0,11.8,30.23,WNW,298,0.0,3.0,73,0.00,,,0.00,Wunderground v.1.15,2013-02-23 13:48:00,
2013-02-23 06:54:00,18.8,11.6,30.23,WNW,298,2.0,2.0,73,0.00,,,0.00,Wunderground v.1.15,2013-02-23 13:54:00,
2013-02-23 06:59:00,18.7,11.8,30.23,WNW,299,2.0,3.0,74,0.00,,,0.00,Wunderground v.1.15,2013-02-23 13:59:00,
2013-02-23 07:04:00,18.5,11.6,30.23,WNW,299,0.0,2.0,74,0.00,,,0.00,Wunderground v.1.15,2013-02-23 14:04:00,
2013-02-23 07:09:00,18.3,11.4,30.23,WNW,299,1.0,2.0,74,0.00,,,0.00,Wunderground v.1.15,2013-02-23 14:09:00,
2013-02-23 07:14:00,18.2,11.6,30.23,WNW,298,2.0,3.0,75,0.00,,,0.00,Wunderground v.1.15,2013-02-23 14:14:00,
2013-02-23 07:19:00,18.2,11.6,30.23,WNW,299,3.0,4.0,75,0.00,,,0.00,Wunderground v.1.15,2013-02-23 14:19:00,
2013-02-23 07:24:00,18.4,11.5,30.23,North,355,4.0,5.0,74,0.00,,,0.00,Wunderground v.1.15,2013-02-23 14:24:00,
2013-02-23 07:29:00,18.8,11.3,30.23,North,351,1.0,5.0,72,0.00,,,0.00,Wunderground v.1.15,2013-02-23 14:29:00,
2013-02-23 07:34:00,19.8,11.6,30.23,North,360,1.0,3.0,70,0.00,,,0.00,Wunderground v.1.15,2013-02-23 14:34:00,
2013-02-23 07:39:00,20.7,11.8,30.23,North,360,0.0,3.0,68,0.00,,,0.00,Wunderground v.1.15,2013-02-23 14:39:00,
2013-02-23 07:44:00,21.4,12.1,30.23,North,355,3.0,3.0,67,0.00,,,0.00,Wunderground v.1.15,2013-02-23 14:44:00,
2013-02-23 07:49:00,22.0,12.0,30.24,North,351,0.0,3.0,65,0.00,,,0.00,Wunderground v.1.15,2013-02-23 14:49:00,
2013-02-23 07:54:00,22.7,12.0,30.24,North,355,2.0,3.0,63,0.00,,,0.00,Wunderground v.1.15,2013-02-23 14:54:00,
2013-02-23 07:59:00,23.3,12.2,30.24,North,355,0.0,3.0,62,0.00,,,0.00,Wunderground v.1.15,2013-02-23 14:59:00,
2013-02-23 08:04:00,24.0,12.1,30.24,North,350,2.0,2.0,60,0.00,,,0.00,Wunderground v.1.15,2013-02-23 15:04:00,
2013-02-23 08:09:00,24.7,12.0,30.24,North,351,0.0,2.0,58,0.00,,,0.00,Wunderground v.1.15,2013-02-23 15:09:00,
2013-02-23 08:14:00,25.7,12.6,30.24,North,355,1.0,2.0,57,0.00,,,0.00,Wunderground v.1.15,2013-02-23 15:14:00,
2013-02-23 08:19:00,26.3,12.7,30.24,North,351,0.0,2.0,56,0.00,,,0.00,Wunderground v.1.15,2013-02-23 15:19:00,
2013-02-23 08:24:00,27.0,12.5,30.24,North,351,2.0,2.0,54,0.00,,,0.00,Wunderground v.1.15,2013-02-23 15:24:00,
2013-02-23 08:29:00,27.6,13.1,30.24,North,360,2.0,3.0,54,0.00,,,0.00,Wunderground v.1.15,2013-02-23 15:29:00,
2013-02-23 08:34:00,28.1,12.7,30.24,North,351,1.0,3.0,52,0.00,,,0.00,Wunderground v.1.15,2013-02-23 15:34:00,
2013-02-23 08:39:00,28.8,13.4,30.23,North,355,0.0,3.0,52,0.00,,,0.00,Wunderground v.1.15,2013-02-23 15:39:00,
2013-02-23 08:44:00,29.6,13.2,30.23,North,351,0.0,2.0,50,0.00,,,0.00,Wunderground v.1.15,2013-02-23 15:44:00,
2013-02-23 08:49:00,30.4,13.5,30.23,North,360,2.0,3.0,49,0.00,,,0.00,Wunderground v.1.15,2013-02-23 15:49:00,
2013-02-23 08:54:00,31.1,14.1,30.22,North,351,1.0,3.0,49,0.00,,,0.00,Wunderground v.1.15,2013-02-23 15:54:00,
2013-02-23 08:59:00,31.7,13.3,30.23,North,360,0.0,3.0,46,0.00,,,0.00,Wunderground v.1.15,2013-02-23 15:59:00,
2013-02-23 09:04:00,31.7,12.8,30.23,North,355,0.0,2.0,45,0.00,,,0.00,Wunderground v.1.15,2013-02-23 16:04:00,
2013-02-23 09:09:00,31.9,13.4,30.23,North,355,2.0,3.0,46,0.00,,,0.00,Wunderground v.1.15,2013-02-23 16:09:00,
2013-02-23 09:14:00,32.0,12.5,30.22,North,351,0.0,4.0,44,0.00,,,0.00,Wunderground v.1.15,2013-02-23 16:14:00,
2013-02-23 09:19:00,32.0,12.5,30.22,North,355,1.0,4.0,44,0.00,,,0.00,Wunderground v.1.15,2013-02-23 16:19:00,
2013-02-23 09:24:00,32.2,12.7,30.22,North,351,0.0,4.0,44,0.00,,,0.00,Wunderground v.1.15,2013-02-23 16:24:00,
2013-02-23 09:29:00,32.7,13.2,30.21,North,355,3.0,4.0,44,0.00,,,0.00,Wunderground v.1.15,2013-02-23 16:29:00,
2013-02-23 09:34:00,33.2,13.1,30.20,NE,42,0.0,5.0,43,0.00,,,0.00,Wunderground v.1.15,2013-02-23 16:34:00,
2013-02-23 09:39:00,33.5,12.3,30.21,NE,42,1.0,5.0,41,0.00,,,0.00,Wunderground v.1.15,2013-02-23 16:39:00,
2013-02-23 09:45:00,34.0,13.3,30.20,NE,41,4.0,4.0,42,0.00,,,0.00,Wunderground v.1.15,2013-02-23 16:45:00,
2013-02-23 09:50:00,34.7,12.2,30.20,NE,42,0.0,4.0,39,0.00,,,0.00,Wunderground v.1.15,2013-02-23 16:50:00,
2013-02-23 09:55:00,35.2,11.5,30.20,NE,41,2.0,4.0,37,0.00,,,0.00,Wunderground v.1.15,2013-02-23 16:55:00,
2013-02-23 10:00:00,35.6,12.5,30.20,WSW,253,3.0,4.0,38,0.00,,,0.00,Wunderground v.1.15,2013-02-23 17:00:00,
2013-02-23 10:05:00,35.7,11.3,30.20,West,270,0.0,5.0,36,0.00,,,0.00,Wunderground v.1.15,2013-02-23 17:05:00,
2013-02-23 10:10:00,36.0,11.6,30.20,SW,230,0.0,1.0,36,0.00,,,0.00,Wunderground v.1.15,2013-02-23 17:10:00,
2013-02-23 10:16:00,36.5,12.7,30.19,SW,219,3.0,6.0,37,0.00,,,0.00,Wunderground v.1.15,2013-02-23 17:16:00,
2013-02-23 10:21:00,36.6,11.5,30.19,WSW,238,2.0,3.0,35,0.00,,,0.00,Wunderground v.1.15,2013-02-23 17:21:00,
2013-02-23 10:26:00,37.2,10.0,30.19,SW,236,0.0,3.0,32,0.00,,,0.00,Wunderground v.1.15,2013-02-23 17:26:00,
2013-02-23 10:31:00,37.5,10.3,30.18,SW,236,3.0,6.0,32,0.00,,,0.00,Wunderground v.1.15,2013-02-23 17:31:00,
2013-02-23 10:36:00,37.8,11.2,30.18,SW,236,2.0,6.0,33,0.00,,,0.00,Wunderground v.1.15,2013-02-23 17:36:00,
2013-02-23 10:41:00,37.9,9.9,30.17,South,170,4.0,4.0,31,0.00,,,0.00,Wunderground v.1.15,2013-02-23 17:41:00,
2013-02-23 10:46:00,37.9,10.6,30.17,South,176,1.0,5.0,32,0.00,,,0.00,Wunderground v.1.15,2013-02-23 17:46:00,
2013-02-23 10:51:00,38.2,10.9,30.17,SSW,197,2.0,4.0,32,0.00,,,0.00,Wunderground v.1.15,2013-02-23 17:51:00,
2013-02-23 10:56:00,38.6,9.8,30.16,ESE,118,3.0,4.0,30,0.00,,,0.00,Wunderground v.1.15,2013-02-23 17:56:00,
2013-02-23 11:01:00,38.6,9.8,30.16,South,186,3.0,6.0,30,0.00,,,0.00,Wunderground v.1.15,2013-02-23 18:01:00,
2013-02-23 11:06:00,38.6,9.0,30.15,South,188,2.0,6.0,29,0.00,,,0.00,Wunderground v.1.15,2013-02-23 18:06:00,
2013-02-23 11:12:00,38.2,9.4,30.16,SW,231,4.0,5.0,30,0.00,,,0.00,Wunderground v.1.15,2013-02-23 18:12:00,
2013-02-23 11:17:00,38.3,9.5,30.15,SW,230,0.0,5.0,30,0.00,,,0.00,Wunderground v.1.15,2013-02-23 18:17:00,
2013-02-23 11:22:00,38.8,10.7,30.15,South,183,0.0,2.0,31,0.00,,,0.00,Wunderground v.1.15,2013-02-23 18:22:00,
2013-02-23 11:27:00,39.6,11.4,30.15,SW,222,5.0,8.0,31,0.00,,,0.00,Wunderground v.1.15,2013-02-23 18:27:00,
2013-02-23 11:32:00,39.9,10.2,30.15,WSW,240,4.0,7.0,29,0.00,,,0.00,Wunderground v.1.15,2013-02-23 18:32:00,
2013-02-23 11:37:00,39.9,10.2,30.15,SE,145,3.0,7.0,29,0.00,,,0.00,Wunderground v.1.15,2013-02-23 18:37:00,
2013-02-23 11:42:00,40.3,9.7,30.14,SE,126,2.0,3.0,28,0.00,,,0.00,Wunderground v.1.15,2013-02-23 18:42:00,
2013-02-23 11:47:00,40.6,10.0,30.14,SE,126,1.0,3.0,28,0.00,,,0.00,Wunderground v.1.15,2013-02-23 18:47:00,
2013-02-23 11:52:00,41.0,11.1,30.13,South,182,5.0,7.0,29,0.00,,,0.00,Wunderground v.1.15,2013-02-23 18:52:00,
2013-02-23 11:57:00,41.5,9.9,30.13,SSW,204,4.0,7.0,27,0.00,,,0.00,Wunderground v.1.15,2013-02-23 18:57:00,
2013-02-23 12:02:00,41.3,9.8,30.13,SSE,162,4.0,6.0,27,0.00,,,0.00,Wunderground v.1.15,2013-02-23 19:02:00,
2013-02-23 12:07:00,41.6,10.9,30.13,SSW,193,8.0,10.0,28,0.00,,,0.00,Wunderground v.1.15,2013-02-23 19:07:00,
2013-02-23 12:12:00,41.9,11.1,30.12,SSE,157,5.0,8.0,28,0.00,,,0.00,Wunderground v.1.15,2013-02-23 19:12:00,
2013-02-23 12:17:00,41.8,10.2,30.12,SSW,194,10.0,11.0,27,0.00,,,0.00,Wunderground v.1.15,2013-02-23 19:17:00,
2013-02-23 12:22:00,41.8,11.0,30.11,SSE,148,6.0,9.0,28,0.00,,,0.00,Wunderground v.1.15,2013-02-23 19:22:00,
2013-02-23 12:27:00,41.8,11.0,30.11,SE,143,5.0,9.0,28,0.00,,,0.00,Wunderground v.1.15,2013-02-23 19:27:00,
2013-02-23 12:33:00,42.4,10.7,30.10,SSE,164,1.0,9.0,27,0.00,,,0.00,Wunderground v.1.15,2013-02-23 19:33:00,
2013-02-23 12:38:00,42.6,10.9,30.10,South,191,7.0,10.0,27,0.00,,,0.00,Wunderground v.1.15,2013-02-23 19:38:00,
2013-02-23 12:43:00,42.7,11.0,30.09,SSE,153,7.0,9.0,27,0.00,,,0.00,Wunderground v.1.15,2013-02-23 19:43:00,
2013-02-23 12:48:00,42.6,10.9,30.09,SSW,196,6.0,15.0,27,0.00,,,0.00,Wunderground v.1.15,2013-02-23 19:48:00,
2013-02-23 12:53:00,43.0,11.2,30.08,SE,132,7.0,8.0,27,0.00,,,0.00,Wunderground v.1.15,2013-02-23 19:53:00,
2013-02-23 12:58:00,43.3,11.5,30.07,SW,236,5.0,8.0,27,0.00,,,0.00,Wunderground v.1.15,2013-02-23 19:58:00,
2013-02-23 13:03:00,43.7,11.0,30.07,SSW,194,6.0,11.0,26,0.00,,,0.00,Wunderground v.1.15,2013-02-23 20:03:00,
2013-02-23 13:08:00,44.4,11.6,30.06,SE,134,12.0,13.0,26,0.00,,,0.00,Wunderground v.1.15,2013-02-23 20:08:00,
2013-02-23 13:13:00,44.5,11.7,30.05,SE,133,4.0,8.0,26,0.00,,,0.00,Wunderground v.1.15,2013-02-23 20:13:00,
2013-02-23 13:18:00,44.4,10.7,30.05,SE,140,6.0,9.0,25,0.00,,,0.00,Wunderground v.1.15,2013-02-23 20:18:00,
2013-02-23 13:23:00,44.4,10.7,30.04,SSE,161,8.0,11.0,25,0.00,,,0.00,Wunderground v.1.15,2013-02-23 20:23:00,
2013-02-23 13:28:00,44.4,9.8,30.03,South,171,5.0,11.0,24,0.00,,,0.00,Wunderground v.1.15,2013-02-23 20:28:00,
2013-02-23 13:33:00,45.0,12.1,30.02,SSE,148,7.0,12.0,26,0.00,,,0.00,Wunderground v.1.15,2013-02-23 20:33:00,
2013-02-23 13:38:00,45.1,11.3,30.02,SSE,153,7.0,12.0,25,0.00,,,0.00,Wunderground v.1.15,2013-02-23 20:38:00,
2013-02-23 13:43:00,44.7,10.1,30.01,ESE,118,1.0,7.0,24,0.00,,,0.00,Wunderground v.1.15,2013-02-23 20:43:00,
2013-02-23 13:48:00,44.9,10.2,30.00,South,178,8.0,12.0,24,0.00,,,0.00,Wunderground v.1.15,2013-02-23 20:48:00,
2013-02-23 13:53:00,45.1,10.4,30.00,SE,128,10.0,11.0,24,0.00,,,0.00,Wunderground v.1.15,2013-02-23 20:53:00,
2013-02-23 13:58:00,45.3,10.6,29.99,SSE,152,4.0,11.0,24,0.00,,,0.00,Wunderground v.1.15,2013-02-23 20:58:00,
2013-02-23 14:03:00,45.6,10.8,29.99,ESE,120,7.0,10.0,24,0.00,,,0.00,Wunderground v.1.15,2013-02-23 21:03:00,
2013-02-23 14:08:00,45.6,10.8,29.99,SE,137,8.0,10.0,24,0.00,,,0.00,Wunderground v.1.15,2013-02-23 21:08:00,
2013-02-23 14:13:00,45.9,11.1,29.98,SE,128,9.0,11.0,24,0.00,,,0.00,Wunderground v.1.15,2013-02-23 21:13:00,
2013-02-23 14:18:00,46.0,10.2,29.97,SE,138,7.0,11.0,23,0.00,,,0.00,Wunderground v.1.15,2013-02-23 21:18:00,
2013-02-23 14:23:00,46.3,11.4,29.96,SE,126,5.0,9.0,24,0.00,,,0.00,Wunderground v.1.15,2013-02-23 21:23:00,
2013-02-23 17:18:00,47.9,12.0,29.88,SSE,155,6.0,17.0,23,0.00,,,0.00,weatherlink.com 1.10,2013-02-24 00:18:00,
2013-02-23 17:23:00,47.9,11.8,29.87,SSE,153,4.0,9.0,23,0.00,,,0.00,Wunderground v.1.15,2013-02-24 00:23:00,
2013-02-23 17:29:00,47.9,11.8,29.86,South,173,8.0,11.0,23,0.00,,,0.00,Wunderground v.1.15,2013-02-24 00:29:00,
2013-02-23 17:36:00,47.7,11.6,29.86,SE,144,10.0,12.0,23,0.00,,,0.00,Wunderground v.1.15,2013-02-24 00:36:00,
2013-02-23 17:41:00,47.5,12.4,29.86,SE,142,7.0,8.0,24,0.00,,,0.00,Wunderground v.1.15,2013-02-24 00:41:00,
2013-02-23 17:46:00,47.2,12.2,29.85,SE,134,7.0,12.0,24,0.00,,,0.00,Wunderground v.1.15,2013-02-24 00:46:00,
2013-02-23 17:51:00,46.9,12.9,29.85,SE,132,8.0,11.0,25,0.00,,,0.00,Wunderground v.1.15,2013-02-24 00:51:00,
2013-02-23 17:56:00,46.6,13.5,29.85,SE,130,8.0,11.0,26,0.00,,,0.00,Wunderground v.1.15,2013-02-24 00:56:00,
2013-02-23 18:01:00,46.3,13.2,29.84,SE,145,9.0,10.0,26,0.00,,,0.00,Wunderground v.1.15,2013-02-24 01:01:00,
2013-02-23 18:06:00,46.1,13.1,29.84,SSE,148,5.0,10.0,26,0.00,,,0.00,Wunderground v.1.15,2013-02-24 01:06:00,
2013-02-23 18:11:00,46.0,13.8,29.84,SSE,157,4.0,7.0,27,0.00,,,0.00,Wunderground v.1.15,2013-02-24 01:11:00,
2013-02-23 18:16:00,45.9,13.7,29.85,SSE,163,3.0,8.0,27,0.00,,,0.00,Wunderground v.1.15,2013-02-24 01:16:00,
2013-02-23 18:21:00,45.8,14.5,29.84,SSE,156,4.0,7.0,28,0.00,,,0.00,Wunderground v.1.15,2013-02-24 01:21:00,
2013-02-23 18:26:00,45.6,14.3,29.84,SSE,151,4.0,7.0,28,0.00,,,0.00,Wunderground v.1.15,2013-02-24 01:26:00,
2013-02-23 18:31:00,45.3,14.1,29.84,SE,143,1.0,4.0,28,0.00,,,0.00,Wunderground v.1.15,2013-02-24 01:31:00,
2013-02-23 18:36:00,44.9,14.5,29.84,SE,143,1.0,4.0,29,0.00,,,0.00,Wunderground v.1.15,2013-02-24 01:36:00,
2013-02-23 18:41:00,44.4,14.9,29.84,SE,144,2.0,2.0,30,0.00,,,0.00,Wunderground v.1.15,2013-02-24 01:41:00,
2013-02-23 18:46:00,43.9,15.2,29.84,SE,144,1.0,4.0,31,0.00,,,0.00,Wunderground v.1.15,2013-02-24 01:46:00,
2013-02-23 18:51:00,43.3,15.4,29.84,SE,144,1.0,2.0,32,0.00,,,0.00,Wunderground v.1.15,2013-02-24 01:51:00,
2013-02-23 18:56:00,42.8,15.6,29.84,SE,143,1.0,2.0,33,0.00,,,0.00,Wunderground v.1.15,2013-02-24 01:56:00,
2013-02-23 19:01:00,42.3,15.2,29.83,SE,143,1.0,2.0,33,0.00,,,0.00,Wunderground v.1.15,2013-02-24 02:01:00,
2013-02-23 19:07:00,41.7,15.4,29.83,SE,143,2.0,3.0,34,0.00,,,0.00,Wunderground v.1.15,2013-02-24 02:07:00,
2013-02-23 19:12:00,41.2,16.2,29.83,SE,144,2.0,5.0,36,0.00,,,0.00,Wunderground v.1.15,2013-02-24 02:12:00,
2013-02-23 19:17:00,41.0,16.7,29.83,SE,143,5.0,5.0,37,0.00,,,0.00,Wunderground v.1.15,2013-02-24 02:17:00,
2013-02-23 19:22:00,41.1,16.8,29.82,SE,138,3.0,4.0,37,0.00,,,0.00,Wunderground v.1.15,2013-02-24 02:22:00,
2013-02-23 19:27:00,41.9,16.9,29.83,SE,137,4.0,7.0,36,0.00,,,0.00,Wunderground v.1.15,2013-02-24 02:27:00,
2013-02-23 19:32:00,42.4,17.3,29.82,SE,137,3.0,6.0,36,0.00,,,0.00,Wunderground v.1.15,2013-02-24 02:32:00,
2013-02-23 19:38:00,42.8,17.0,29.82,SE,138,5.0,6.0,35,0.00,,,0.00,Wunderground v.1.15,2013-02-24 02:38:00,
2013-02-23 19:44:00,42.9,17.1,29.83,SE,140,4.0,6.0,35,0.00,,,0.00,Wunderground v.1.15,2013-02-24 02:44:00,
2013-02-23 19:49:00,42.9,17.1,29.83,SE,141,2.0,6.0,35,0.00,,,0.00,Wunderground v.1.15,2013-02-24 02:49:00,
2013-02-23 19:56:00,43.0,17.2,29.83,SSE,155,2.0,6.0,35,0.00,,,0.00,Wunderground v.1.15,2013-02-24 02:56:00,
2013-02-23 20:01:00,43.2,17.4,29.83,SSE,161,3.0,4.0,35,0.00,,,0.00,Wunderground v.1.15,2013-02-24 03:01:00,
2013-02-23 20:06:00,43.1,17.3,29.83,SSE,161,2.0,4.0,35,0.00,,,0.00,Wunderground v.1.15,2013-02-24 03:06:00,
2013-02-23 20:11:00,42.6,16.2,29.83,SSE,161,1.0,3.0,34,0.00,,,0.00,Wunderground v.1.15,2013-02-24 03:11:00,
2013-02-23 20:16:00,41.8,16.1,29.84,SSE,161,1.0,3.0,35,0.00,,,0.00,Wunderground v.1.15,2013-02-24 03:16:00,
2013-02-23 20:22:00,41.0,16.7,29.84,WSW,244,4.0,4.0,37,0.00,,,0.00,Wunderground v.1.15,2013-02-24 03:22:00,
2013-02-23 20:28:00,40.1,15.2,29.84,WSW,244,1.0,4.0,36,0.00,,,0.00,Wunderground v.1.15,2013-02-24 03:28:00,
2013-02-23 20:34:00,39.3,14.5,29.84,WSW,244,1.0,3.0,36,0.00,,,0.00,Wunderground v.1.15,2013-02-24 03:34:00,
2013-02-23 20:39:00,38.7,14.6,29.84,WSW,244,3.0,3.0,37,0.00,,,0.00,Wunderground v.1.15,2013-02-24 03:39:00,
2013-02-23 20:44:00,38.1,15.3,29.84,WSW,244,0.0,2.0,39,0.00,,,0.00,Wunderground v.1.15,2013-02-24 03:44:00,
2013-02-23 20:49:00,37.5,14.8,29.85,WSW,244,0.0,2.0,39,0.00,,,0.00,Wunderground v.1.15,2013-02-24 03:49:00,
2013-02-23 20:54:00,36.9,14.2,29.85,WSW,244,2.0,2.0,39,0.00,,,0.00,Wunderground v.1.15,2013-02-24 03:54:00,
2013-02-23 20:59:00,36.4,14.3,29.85,WSW,244,2.0,3.0,40,0.00,,,0.00,Wunderground v.1.15,2013-02-24 03:59:00,
2013-02-23 21:04:00,36.1,14.1,29.85,WSW,244,3.0,4.0,40,0.00,,,0.00,Wunderground v.1.15,2013-02-24 04:04:00,
2013-02-23 21:09:00,35.6,14.7,29.85,East,83,5.0,5.0,42,0.00,,,0.00,Wunderground v.1.15,2013-02-24 04:09:00,
2013-02-23 21:14:00,35.4,14.6,29.85,East,100,3.0,7.0,42,0.00,,,0.00,Wunderground v.1.15,2013-02-24 04:14:00,
2013-02-23 21:19:00,35.4,14.6,29.85,East,101,5.0,7.0,42,0.00,,,0.00,Wunderground v.1.15,2013-02-24 04:19:00,
2013-02-23 21:24:00,35.6,14.7,29.85,ESE,105,3.0,5.0,42,0.00,,,0.00,Wunderground v.1.15,2013-02-24 04:24:00,
2013-02-23 21:29:00,35.6,15.3,29.86,ESE,105,3.0,5.0,43,0.00,,,0.00,Wunderground v.1.15,2013-02-24 04:29:00,
2013-02-23 21:34:00,35.5,15.2,29.86,ESE,105,0.0,3.0,43,0.00,,,0.00,Wunderground v.1.15,2013-02-24 04:34:00,
2013-02-23 21:39:00,35.3,15.0,29.86,ESE,105,0.0,3.0,43,0.00,,,0.00,Wunderground v.1.15,2013-02-24 04:39:00,
2013-02-23 21:45:00,35.1,15.3,29.87,ESE,105,1.0,3.0,44,0.00,,,0.00,Wunderground v.1.15,2013-02-24 04:45:00,
2013-02-23 21:49:00,35.1,15.3,29.87,ESE,105,0.0,3.0,44,0.00,,,0.00,Wunderground v.1.15,2013-02-24 04:49:00,
2013-02-23 21:55:00,35.0,15.8,29.87,ESE,105,0.0,3.0,45,0.00,,,0.00,Wunderground v.1.15,2013-02-24 04:55:00,
2013-02-23 22:00:00,34.9,16.2,29.87,ESE,105,2.0,4.0,46,0.00,,,0.00,Wunderground v.1.15,2013-02-24 05:00:00,
2013-02-23 22:01:00,34.8,16.1,29.87,ESE,105,0.0,1.0,46,0.00,,,0.00,Wunderground v.1.15,2013-02-24 05:01:00,
2013-02-23 22:06:00,34.7,16.0,29.87,ESE,105,0.0,3.0,46,0.00,,,0.00,Wunderground v.1.15,2013-02-24 05:06:00,
2013-02-23 22:11:00,34.7,16.5,29.87,ESE,105,1.0,2.0,47,0.00,,,0.00,Wunderground v.1.15,2013-02-24 05:11:00,
2013-02-23 22:16:00,34.5,16.8,29.87,ESE,105,2.0,2.0,48,0.00,,,0.00,Wunderground v.1.15,2013-02-24 05:16:00,
2013-02-23 22:21:00,34.4,16.7,29.87,ESE,105,2.0,3.0,48,0.00,,,0.00,Wunderground v.1.15,2013-02-24 05:21:00,
2013-02-23 22:26:00,34.5,16.8,29.88,SE,136,6.0,6.0,48,0.00,,,0.00,Wunderground v.1.15,2013-02-24 05:26:00,
2013-02-23 22:31:00,34.9,16.7,29.87,South,182,6.0,8.0,47,0.00,,,0.00,Wunderground v.1.15,2013-02-24 05:31:00,
2013-02-23 22:36:00,35.8,17.0,29.87,SW,229,9.0,9.0,46,0.00,,,0.00,Wunderground v.1.15,2013-02-24 05:36:00,
2013-02-23 22:41:00,37.6,18.2,29.87,SW,236,7.0,10.0,45,0.00,,,0.00,Wunderground v.1.15,2013-02-24 05:41:00,
2013-02-23 22:46:00,39.9,18.6,29.87,SSW,200,7.0,14.0,42,0.00,,,0.00,Wunderground v.1.15,2013-02-24 05:46:00,
2013-02-23 22:51:00,40.7,18.2,29.87,SSW,202,3.0,8.0,40,0.00,,,0.00,Wunderground v.1.15,2013-02-24 05:51:00,
2013-02-23 22:56:00,41.0,17.9,29.87,SSW,204,6.0,8.0,39,0.00,,,0.00,Wunderground v.1.15,2013-02-24 05:56:00,
2013-02-23 23:01:00,41.1,18.0,29.87,SE,139,5.0,7.0,39,0.00,,,0.00,Wunderground v.1.15,2013-02-24 06:01:00,
2013-02-23 23:07:00,41.2,17.5,29.87,South,176,4.0,7.0,38,0.00,,,0.00,Wunderground v.1.15,2013-02-24 06:07:00,
2013-02-23 23:12:00,41.2,17.5,29.87,SSW,196,4.0,6.0,38,0.00,,,0.00,Wunderground v.1.15,2013-02-24 06:12:00,
2013-02-23 23:17:00,41.2,17.5,29.87,South,172,4.0,8.0,38,0.00,,,0.00,Wunderground v.1.15,2013-02-24 06:17:00,
2013-02-23 23:22:00,41.4,17.7,29.87,South,183,5.0,9.0,38,0.00,,,0.00,Wunderground v.1.15,2013-02-24 06:22:00,
2013-02-23 23:27:00,41.6,17.8,29.87,South,190,6.0,9.0,38,0.00,,,0.00,Wunderground v.1.15,2013-02-24 06:27:00,
2013-02-23 23:32:00,41.4,18.3,29.87,SSW,202,4.0,7.0,39,0.00,,,0.00,Wunderground v.1.15,2013-02-24 06:32:00,
2013-02-23 23:37:00,41.4,18.3,29.87,SSW,198,4.0,7.0,39,0.00,,,0.00,Wunderground v.1.15,2013-02-24 06:37:00,
2013-02-23 23:43:00,41.4,18.3,29.87,SSW,213,4.0,8.0,39,0.00,,,0.00,Wunderground v.1.15,2013-02-24 06:43:00,
2013-02-23 23:48:00,41.4,18.3,29.87,SSW,194,6.0,11.0,39,0.00,,,0.00,Wunderground v.1.15,2013-02-24 06:48:00,
2013-02-23 23:53:00,41.6,18.4,29.86,SSW,194,7.0,13.0,39,0.00,,,0.00,Wunderground v.1.15,2013-02-24 06:53:00,
2013-02-23 23:58:00,41.7,18.5,29.86,SSW,192,7.0,13.0,39,0.00,,,0.00,Wunderground v.1.15,2013-02-24 06:58:00,